Temperature
21 21 20 20 19 19 21 22 22 22 22 22 21 21 20 19 19 19 19 19 19 19 19 19 19 19 19 19 19 19 19 19 19 19 19 19 19 19 19 18 18 18 18 18 18 18 18 18 18
21 21 20 20 19 20 21 22 22 22 22 22 22 21 20 19 19 19 19 19 19 19 19 19 19 19 19 19 19 19 19 19 19 19 19 19 19 19 19 19 18 18 18 18 18 18 18 18 18
21 21 21 19 20 20 21 22 22 23 23 22 21 21 20 19 20 20 20 19 19 19 19 19 19 19 19 19 19 19 19 19 19 19 19 19 19 19 19 19 18 18 18 18 18 18 18 18 18
22 21 21 20 21 22 22 22 22 23 23 22 21 20 20 20 20 20 20 19 19 19 19 19 19 19 19 19 19 19 19 19 19 19 18 18 19 18 18 18 18 18 18 18 18 18 18 18 18
22 22 20 20 22 23 23 23 23 22 22 22 21 20 19 20 20 20 20 20 20 19 19 19 19 19 19 19 19 19 19 19 19 19 18 18 18 18 18 18 18 18 18 18 18 18 18 18 18
22 20 20 21 22 23 23 24 23 22 22 22 21 19 19 20 20 20 20 20 19 19 19 19 19 19 19 19 19 19 19 19 18 18 18 18 18 18 18 18 18 18 18 18 18 18 18 18 18
22 20 21 21 22 23 24 24 23 22 22 22 21 19 19 19 20 20 20 19 19 19 19 19 19 19 19 19 19 19 19 19 19 18 18 18 18 18 18 18 18 18 18 18 18 18 18 18 18
23 20 21 21 22 23 24 24 23 23 22 22 22 20 19 20 20 20 19 19 19 19 19 19 19 19 19 19 19 19 19 19 18 18 18 18 18 18 18 18 18 18 18 18 18 18 18 18 18
23 21 21 22 23 23 24 24 23 23 22 22 22 22 21 20 20 20 19 19 19 19 19 19 19 19 19 19 19 19 19 19 18 18 18 18 18 18 18 18 18 18 18 18 18 18 18 18 18
23 21 22 23 23 23 24 24 24 23 22 21 21 21 21 20 20 20 20 19 19 19 19 19 19 19 19 19 19 19 19 19 19 18 18 18 18 18 18 18 18 18 18 18 18 18 18 18 18
22 22 23 24 25 24 24 24 24 23 22 22 21 21 20 20 20 20 20 20 20 20 19 19 19 19 19 19 19 19 19 19 19 19 19 18 18 18 18 18 18 18 18 18 18 18 18 18 18
23 23 24 25 25 25 24 24 23 23 23 24 23 22 21 20 20 20 20 20 20 20 19 19 19 19 19 19 19 19 19 19 19 19 19 18 18 18 18 18 18 18 18 18 18 18 18 18 18
24 25 25 25 25 25 24 24 23 23 24 24 23 22 21 21 20 20 20 20 20 20 20 19 19 19 19 19 19 19 19 19 19 19 18 18 18 18 18 18 18 18 18 18 18 18 18 18 18
25 25 25 25 25 25 24 23 23 23 23 23 22 21 21 21 21 20 20 20 20 20 20 20 19 19 19 19 19 19 19 19 18 18 18 18 18 18 18 18 18 18 18 18 18 18 18 18 18
26 24 25 25 25 25 25 24 23 23 23 22 21 21 21 21 21 21 21 21 21 20 20 20 20 19 19 19 19 19 19 19 19 19 19 19 18 18 18 18 18 18 18 18 18 18 18 18 18
25 24 24 25 25 25 25 23 23 23 22 21 21 21 21 21 21 21 21 21 21 21 20 20 20 19 19 19 19 19 19 19 19 19 19 18 18 18 18 18 18 18 18 18 18 18 18 18 18
24 23 24 25 25 24 24 23 23 23 22 21 21 21 21 21 21 21 21 21 21 21 20 20 20 20 19 19 19 19 19 19 19 19 19 18 18 18 18 18 18 18 18 18 18 18 18 18 18
24 24 24 24 25 24 23 23 23 22 22 21 21 21 21 21 22 22 21 21 21 21 20 20 20 20 20 19 19 19 19 19 19 19 19 18 18 18 18 18 18 18 18 18 18 18 18 18 18
25 24 24 24 25 24 23 23 22 22 22 22 21 21 21 22 22 22 22 21 21 21 20 20 20 20 20 19 19 19 19 19 19 19 19 19 18 18 18 18 18 18 18 18 18 18 18 18 18
24 24 24 24 25 24 23 23 22 22 22 22 22 22 22 22 22 22 22 21 21 21 21 20 20 20 20 20 20 19 19 19 19 19 19 19 18 18 18 18 18 18 18 18 18 18 18 18 18
24 24 24 24 24 24 24 23 22 22 22 22 22 22 22 22 22 22 22 22 22 21 21 21 21 20 20 20 20 19 19 19 19 19 19 19 18 18 18 18 18 18 18 18 18 18 18 18 18
24 25 25 24 23 22 23 22 22 21 21 21 22 22 22 22 23 23 22 22 22 22 21 21 21 21 20 20 20 19 19 19 19 19 19 19 19 18 18 18 18 18 18 18 18 18 18 18 18
25 25 24 23 22 21 22 22 21 21 21 21 21 22 23 23 23 23 23 23 22 22 22 21 21 21 20 20 20 19 19 20 19 19 19 19 18 18 18 18 18 18 18 18 18 18 18 18 18
25 23 22 20 20 21 21 21 21 20 21 21 22 22 23 23 23 23 23 22 22 22 21 21 21 21 20 20 20 20 19 19 19 19 19 19 19 18 18 18 18 18 18 18 17 17 17 17 17
24 22 21 22 20 21 21 21 21 21 21 21 22 22 23 23 23 23 22 22 22 22 22 21 21 21 20 20 20 20 20 19 19 19 19 19 19 18 18 18 18 18 18 18 17 17 17 17 17
23 22 22 22 21 20 20 20 21 21 21 22 22 22 22 22 22 23 23 23 22 22 22 21 21 21 20 20 20 20 20 19 19 19 19 19 19 19 18 18 18 18 18 17 17 17 17 17 17
23 21 21 20 20 20 20 20 21 21 21 20 21 21 21 22 22 23 23 22 22 22 22 22 21 21 21 20 20 20 20 19 19 19 19 19 18 18 18 18 18 18 17 17 17 17 17 17 17
22 19 18 19 20 21 21 21 20 21 20 20 19 20 21 21 22 22 22 22 22 22 22 21 21 21 21 21 20 20 20 20 19 19 19 19 18 18 18 18 18 18 17 17 17 17 17 17 17
21 20 18 17 19 20 20 21 21 20 20 19 19 20 20 21 21 22 22 22 22 22 21 21 21 21 21 20 20 20 20 19 19 19 19 18 18 18 18 18 18 17 17 17 17 17 17 16 16
22 21 18 20 19 18 19 20 21 20 19 19 19 20 20 21 21 21 22 22 22 21 21 21 21 21 21 20 20 20 19 19 19 19 19 18 18 18 18 18 18 17 17 17 17 17 17 16 16
Wind_Speed
9 7 2 1 4 4 2 3 1 2 2 2 4 5 5 4 2 2 0 4 6 5 5 8 11 11 12 12 13 14 15 15 15 15 15 14 14 13 13 12 11 11 10 10 10 9 9 9 9
7 4 1 2 4 3 3 2 1 1 4 4 5 5 5 4 3 5 3 4 6 5 6 8 10 11 11 11 12 14 14 15 15 14 14 13 13 12 12 11 10 10 9 9 9 9 8 8 8
6 2 2 3 3 2 1 1 2 3 4 3 4 5 4 3 3 4 3 7 7 5 6 8 11 11 11 11 12 14 14 14 13 13 12 12 11 11 10 10 9 9 8 8 8 7 7 7 7
3 1 3 4 3 1 2 2 3 4 3 5 4 5 4 3 4 5 8 9 8 5 6 8 11 10 10 11 12 13 13 12 12 11 11 10 10 10 9 8 8 7 7 7 7 6 6 6 5
2 3 5 4 2 1 1 2 2 2 3 4 4 5 4 3 7 10 9 8 7 5 5 7 10 10 10 10 11 11 11 11 11 10 10 9 9 8 8 7 7 6 6 5 5 5 5 4 4
3 3 4 2 2 2 1 2 2 3 4 4 4 4 3 3 7 8 8 7 6 5 4 6 9 9 9 10 10 10 10 10 9 9 8 8 8 7 6 6 6 5 4 4 4 4 4 3 3
3 3 2 1 1 1 1 1 3 4 4 3 4 5 2 3 5 8 7 6 5 5 4 3 5 6 8 8 9 9 9 8 8 8 8 7 7 6 5 5 5 4 4 4 3 3 3 2 2
3 4 2 1 1 2 2 2 3 4 4 4 4 7 5 5 8 8 7 6 5 4 3 2 3 4 4 5 7 7 7 7 7 7 6 6 5 5 4 3 4 4 4 4 3 3 3 2 2
3 3 2 4 4 3 2 2 2 3 6 3 3 4 6 13 11 9 6 4 3 3 2 2 2 3 3 3 5 5 5 5 5 4 4 3 2 2 2 3 4 4 4 4 3 3 3 2 2
3 3 6 5 5 4 3 3 5 4 4 2 5 7 12 14 12 10 9 7 6 5 4 3 2 2 3 3 3 2 2 2 2 1 1 1 1 1 2 3 4 4 4 4 4 4 4 2 1
4 5 4 3 4 5 4 3 4 7 4 5 8 13 14 13 10 10 9 8 7 5 5 4 4 3 3 2 2 2 2 1 2 2 2 1 1 1 1 1 2 3 2 2 2 2 1 1 1
3 4 4 3 4 5 5 4 4 5 5 6 12 16 15 13 12 11 10 8 7 6 6 5 5 4 4 3 2 2 2 2 2 2 3 2 1 1 1 1 1 2 1 1 1 1 2 2 3
2 2 2 3 4 5 4 4 3 2 3 10 13 14 13 12 10 8 7 7 6 7 7 6 6 5 4 3 2 2 3 3 2 2 3 3 2 1 1 1 1 2 2 1 1 1 2 2 2
2 0 1 1 3 3 5 3 3 3 8 11 12 12 11 11 10 8 7 8 8 8 8 6 6 6 5 4 3 3 3 3 3 3 4 4 3 2 1 1 1 2 2 2 2 2 2 2 1
2 3 4 2 2 2 6 2 2 5 10 11 11 10 10 9 9 10 10 9 9 8 7 6 7 5 5 5 5 4 3 3 3 3 4 4 4 3 2 1 2 2 2 2 1 1 1 2 1
4 4 2 2 1 2 5 3 4 8 11 10 9 9 9 9 9 10 9 8 8 7 6 6 6 6 6 5 4 3 3 3 3 3 4 4 4 4 2 2 2 2 1 1 1 1 0 1 1
4 1 2 3 1 3 3 4 3 8 10 9 9 9 9 8 8 8 8 8 8 8 7 7 6 6 6 5 3 3 2 2 2 3 3 3 3 4 3 2 2 1 1 0 1 1 1 1 1
3 2 2 3 2 3 3 4 3 8 10 10 9 9 8 9 10 8 7 7 7 7 7 7 6 5 4 3 2 1 1 1 2 2 3 3 3 3 3 2 1 1 1 0 0 0 0 1 1
3 3 4 5 3 4 5 4 4 7 9 9 8 8 9 9 7 6 6 7 7 6 6 6 6 5 4 2 3 2 2 2 2 2 3 3 3 3 3 2 1 1 1 1 1 1 1 0 1
3 3 4 5 1 4 2 3 2 6 9 10 10 10 10 8 5 6 6 7 8 8 8 7 6 5 5 4 3 3 3 2 2 2 2 3 3 3 3 3 2 2 1 1 1 2 1 0 1
3 5 5 4 2 3 2 3 3 3 4 5 6 7 8 10 9 8 8 8 8 9 9 9 7 7 6 5 3 2 2 1 0 1 1 1 3 3 3 3 3 2 2 2 2 2 2 1 1
5 6 6 3 3 1 2 2 6 3 4 6 7 7 9 9 9 9 9 9 10 10 8 7 7 7 6 6 5 5 4 3 3 2 1 1 1 2 3 3 3 3 2 2 3 2 2 3 2
5 1 3 2 4 2 2 2 7 1 4 8 9 9 9 9 9 10 11 11 9 8 7 6 6 6 5 6 6 5 4 3 2 2 2 1 1 2 2 3 3 2 2 3 3 2 2 2 3
4 6 7 6 5 1 2 3 6 4 6 6 7 8 9 8 9 8 7 7 6 7 6 6 6 5 5 6 6 6 6 5 3 3 3 2 1 1 2 3 2 2 2 3 3 2 2 2 2
5 6 4 5 4 5 2 2 7 6 5 6 6 6 6 5 6 7 8 8 7 8 8 7 7 7 6 6 6 6 7 6 6 5 4 3 2 2 2 2 2 2 2 2 2 2 2 2 2
4 8 7 5 5 5 1 4 7 4 3 2 3 3 3 3 4 5 7 8 7 8 8 8 8 8 8 8 7 6 6 6 5 5 5 5 4 3 3 3 3 2 3 2 2 2 2 2 2
6 3 5 7 3 1 4 6 7 3 3 1 0 1 1 2 4 4 5 5 6 6 7 8 9 8 8 9 7 6 6 6 5 5 5 4 4 3 4 3 3 2 2 2 2 2 2 2 2
5 8 6 6 6 3 4 4 5 6 5 2 1 2 1 1 2 3 4 4 5 6 5 5 7 8 8 8 8 7 7 6 6 5 5 5 4 3 4 3 3 3 3 3 2 2 2 2 2
4 5 6 5 5 6 4 6 5 7 5 4 4 3 3 2 2 2 2 3 4 4 4 5 5 5 6 7 7 6 6 6 6 6 6 5 5 5 4 4 4 4 3 3 3 3 2 2 2
5 6 7 5 4 4 4 7 4 4 4 4 3 2 2 1 1 1 2 2 2 3 3 4 4 5 5 5 5 6 5 5 5 5 5 5 4 4 4 4 4 4 4 4 4 4 3 3 3
Wind_Direction
151 147 148 96 53 47 18 332 349 71 74 67 85 91 102 91 104 136 98 121 119 123 135 134 129 129 129 130 133 133 130 130 128 128 129 128 126 125 124 123 122 121 120 118 116 114 113 111 111
145 154 139 56 71 58 342 324 47 90 140 129 88 79 77 72 69 107 119 128 122 124 127 130 130 129 128 129 136 139 133 131 130 130 130 129 128 127 126 125 125 123 121 119 118 116 117 116 116
157 173 77 62 72 135 217 263 117 95 113 95 76 63 74 93 118 136 140 130 118 113 121 134 132 128 126 124 127 134 134 132 132 133 133 132 131 131 129 129 129 128 125 123 123 122 124 124 123
149 62 53 59 46 241 197 194 142 123 82 64 91 73 65 71 132 132 128 128 120 110 119 134 133 132 129 125 125 130 134 136 136 136 136 136 135 135 134 133 134 134 134 132 129 128 129 128 127
81 74 50 33 355 322 169 173 142 101 82 68 85 86 51 35 97 117 126 127 124 116 119 135 137 136 134 132 131 134 137 138 140 141 142 141 140 140 141 143 144 145 145 142 139 138 136 133 127
60 64 68 21 330 346 88 128 113 89 90 93 92 89 54 89 113 127 127 121 118 118 116 131 139 138 137 135 136 139 141 144 148 152 153 149 148 151 153 155 158 160 161 157 156 157 157 154 150
98 83 115 173 310 329 163 116 123 125 111 123 117 99 89 130 130 126 116 109 107 108 108 111 135 143 146 145 145 146 148 152 158 162 160 160 162 166 168 172 175 179 182 184 185 190 178 180 186
127 100 86 186 183 239 163 114 119 123 115 121 119 137 170 171 133 115 105 100 105 108 111 109 121 132 141 150 154 156 159 161 163 169 173 176 176 176 180 184 192 202 206 206 210 218 204 206 218
116 83 188 207 188 209 170 124 129 104 116 119 114 150 154 138 130 122 116 111 126 144 137 137 135 137 146 161 171 167 169 170 167 170 181 180 170 186 207 217 218 221 226 226 233 249 238 231 239
112 147 219 209 186 180 191 167 150 126 121 104 85 96 125 137 144 150 158 166 174 180 183 180 178 173 173 182 175 169 178 170 155 157 189 181 180 220 234 246 248 244 242 241 245 255 252 242 238
163 191 222 225 197 168 165 153 147 140 182 192 161 146 146 150 158 167 176 181 187 188 190 189 194 192 189 191 179 175 171 175 178 192 201 197 188 258 277 290 299 313 290 260 250 264 281 258 232
177 232 202 209 163 157 163 148 144 171 208 173 155 151 155 164 175 181 185 189 185 188 201 199 190 193 202 199 197 179 182 199 207 214 208 189 194 248 261 255 285 310 306 289 247 233 254 254 247
188 245 238 198 156 162 144 151 156 198 127 128 139 151 164 174 184 189 188 190 189 197 205 202 193 198 199 194 212 203 205 209 210 208 216 204 200 219 241 255 265 271 261 235 238 245 248 250 253
204 153 339 57 117 139 134 127 123 178 134 138 152 165 174 180 183 181 185 192 196 201 204 200 200 201 192 197 208 209 210 216 216 220 223 216 207 214 221 245 257 262 244 227 222 237 249 260 256
71 44 18 27 77 128 115 84 213 167 143 150 164 173 180 186 184 189 191 192 196 198 197 196 203 197 198 204 209 204 204 204 215 229 227 221 210 211 214 227 251 257 242 215 214 249 250 255 243
48 55 18 298 106 119 124 233 236 156 152 163 174 184 189 196 198 200 193 191 192 189 187 196 203 192 201 203 202 193 199 203 218 225 228 228 220 212 198 217 245 248 224 176 190 203 215 265 262
35 51 274 302 182 130 146 239 239 160 162 177 187 194 197 202 208 206 196 194 191 189 185 190 196 188 197 196 192 189 185 201 218 218 218 223 219 212 198 214 234 214 169 203 223 186 180 221 268
240 240 269 263 235 130 191 245 228 174 177 189 196 200 200 206 213 203 195 194 192 188 188 189 190 186 182 174 170 179 191 214 211 203 214 213 213 202 187 195 222 172 156 197 177 160 142 202 236
189 205 259 261 220 173 207 236 221 179 187 197 202 206 207 213 214 201 195 189 186 186 190 193 189 182 165 166 176 185 211 214 209 210 208 205 201 185 169 178 186 176 189 204 170 147 122 57 97
187 241 267 288 189 168 204 261 242 187 200 201 202 206 209 212 205 202 200 196 192 191 196 194 193 182 183 190 183 180 176 189 202 214 194 197 194 188 183 178 189 183 178 177 158 150 140 170 128
223 200 227 235 22 56 92 329 275 232 218 213 212 208 208 208 206 205 200 201 195 196 197 201 195 189 193 188 159 140 109 77 111 211 217 208 195 195 190 183 183 188 181 195 204 182 172 185 197
255 220 198 184 119 322 94 276 288 250 237 229 226 217 212 210 205 205 201 199 202 205 197 197 194 191 189 177 175 178 184 192 205 197 208 233 198 201 196 188 186 194 193 200 211 194 189 176 192
220 143 134 127 124 63 26 156 291 305 247 245 232 225 219 209 205 207 204 202 201 196 188 187 181 184 183 177 179 181 188 189 180 170 188 221 229 210 204 194 193 200 207 214 214 199 188 186 183
149 71 60 52 75 40 257 168 281 250 235 248 231 223 218 208 206 206 201 192 190 182 177 177 175 189 185 179 183 182 185 183 175 183 195 217 226 221 218 191 186 199 204 213 216 205 195 200 191
95 92 38 7 14 254 268 193 249 257 248 233 227 221 213 202 199 196 189 187 189 186 184 183 181 195 192 185 190 192 191 187 193 197 200 204 209 218 227 200 185 201 206 205 199 194 205 197 192
167 141 159 191 218 266 324 229 254 278 282 259 223 205 188 186 186 193 195 190 191 193 189 187 191 199 194 193 199 199 197 196 204 202 200 203 206 210 212 200 191 194 195 201 192 201 218 204 205
136 151 157 135 142 209 276 284 302 315 330 340 107 128 182 194 186 186 185 185 189 193 200 200 198 200 200 201 201 204 201 199 203 200 198 200 205 202 200 193 189 190 189 191 188 200 216 202 205
127 140 104 124 149 225 281 277 265 278 276 276 210 189 198 191 179 171 172 179 188 193 199 203 203 205 203 200 204 207 205 204 201 191 194 198 202 201 197 196 190 193 194 193 193 204 220 198 219
96 98 106 115 148 160 228 266 232 227 233 225 210 195 188 187 180 180 171 181 180 176 179 193 199 202 204 205 205 204 205 205 200 198 204 203 202 198 199 197 198 200 201 201 198 214 211 209 226
157 157 146 151 199 172 179 258 272 223 226 212 204 184 176 187 191 161 113 102 125 157 176 194 204 204 208 203 198 202 204 201 204 211 212 201 199 200 202 200 198 202 207 206 205 216 217 214 221
Height
1495 1495 1496 1498 1500 1509 1511 1504 1499 1498 1499 1499 1499 1500 1502 1505 1508 1513 1509 1507 1509 1510 1511 1513 1514 1515 1516 1518 1518 1520 1523 1524 1526 1528 1530 1531 1533 1534 1536 1537 1538 1540 1541 1542 1543 1544 1545 1546 1547
1496 1496 1499 1499 1507 1520 1515 1503 1500 1499 1499 1499 1500 1501 1503 1505 1506 1507 1507 1509 1511 1512 1513 1515 1516 1517 1518 1519 1518 1521 1524 1526 1528 1530 1532 1533 1535 1536 1537 1539 1540 1541 1542 1543 1544 1545 1546 1547 1548
1497 1498 1500 1502 1511 1518 1512 1502 1500 1499 1500 1500 1502 1503 1505 1507 1507 1508 1509 1510 1512 1514 1515 1517 1518 1520 1521 1520 1519 1522 1526 1528 1530 1532 1534 1535 1536 1538 1539 1540 1541 1543 1544 1545 1545 1546 1548 1549 1550
1498 1500 1501 1507 1511 1507 1504 1501 1499 1500 1501 1501 1503 1505 1507 1509 1509 1510 1511 1512 1514 1516 1518 1519 1521 1522 1523 1524 1524 1526 1528 1530 1532 1534 1535 1537 1538 1539 1540 1542 1543 1544 1545 1546 1546 1547 1548 1549 1551
1499 1500 1506 1513 1510 1503 1500 1500 1500 1501 1501 1503 1504 1507 1509 1511 1511 1512 1513 1515 1516 1518 1520 1522 1523 1524 1526 1527 1528 1529 1531 1532 1534 1535 1537 1538 1539 1541 1542 1543 1544 1545 1546 1546 1547 1548 1549 1550 1551
1501 1502 1515 1519 1511 1503 1501 1501 1501 1502 1503 1505 1506 1508 1511 1512 1513 1514 1515 1517 1519 1521 1522 1524 1525 1527 1528 1529 1531 1532 1533 1534 1536 1537 1538 1540 1541 1542 1543 1544 1545 1546 1547 1547 1548 1549 1550 1551 1551
1502 1506 1514 1514 1512 1506 1503 1502 1503 1503 1505 1506 1507 1509 1512 1513 1515 1516 1518 1519 1521 1523 1524 1526 1527 1529 1530 1531 1533 1534 1535 1536 1537 1539 1540 1541 1542 1543 1544 1545 1546 1547 1547 1548 1548 1549 1550 1551 1552
1501 1506 1512 1513 1511 1507 1502 1502 1503 1504 1506 1507 1508 1509 1512 1514 1516 1518 1519 1521 1523 1524 1526 1527 1529 1530 1532 1533 1534 1536 1537 1538 1539 1540 1541 1542 1543 1544 1545 1546 1546 1547 1548 1548 1549 1550 1550 1551 1552
1502 1510 1515 1510 1508 1505 1502 1503 1504 1505 1506 1508 1508 1509 1511 1514 1516 1518 1520 1522 1524 1526 1527 1529 1530 1532 1533 1535 1536 1537 1538 1539 1540 1541 1542 1543 1544 1545 1546 1546 1547 1547 1548 1548 1549 1550 1551 1551 1552
1502 1511 1507 1501 1500 1500 1501 1502 1504 1505 1507 1508 1509 1510 1512 1514 1517 1519 1521 1522 1524 1526 1528 1530 1532 1533 1534 1536 1537 1538 1539 1540 1541 1542 1543 1544 1545 1545 1546 1547 1547 1548 1548 1549 1549 1550 1550 1551 1552
1500 1503 1499 1497 1497 1498 1500 1502 1503 1504 1507 1507 1507 1509 1512 1515 1517 1519 1521 1523 1525 1527 1529 1530 1532 1534 1535 1537 1538 1539 1540 1541 1542 1543 1544 1544 1545 1546 1546 1547 1547 1548 1548 1549 1549 1550 1550 1551 1552
1499 1497 1496 1496 1496 1498 1499 1501 1503 1504 1504 1505 1507 1509 1512 1515 1517 1520 1522 1524 1526 1528 1529 1531 1533 1534 1536 1537 1538 1540 1541 1542 1543 1543 1544 1545 1545 1546 1546 1547 1547 1548 1548 1548 1549 1549 1550 1551 1551
1498 1496 1495 1495 1496 1497 1499 1501 1503 1504 1505 1506 1508 1511 1513 1516 1518 1521 1523 1525 1526 1528 1530 1531 1533 1535 1536 1537 1538 1540 1541 1542 1543 1544 1544 1545 1545 1546 1546 1547 1547 1547 1548 1548 1548 1549 1549 1550 1551
1496 1496 1496 1496 1496 1498 1500 1503 1504 1504 1505 1507 1510 1512 1514 1516 1518 1521 1523 1524 1526 1528 1530 1532 1533 1535 1536 1537 1538 1539 1541 1542 1543 1544 1544 1545 1545 1545 1546 1546 1547 1547 1547 1548 1548 1548 1549 1549 1550
1496 1498 1498 1498 1498 1499 1501 1506 1504 1504 1506 1508 1511 1512 1514 1516 1518 1520 1522 1524 1526 1528 1530 1531 1533 1534 1536 1537 1538 1539 1540 1541 1543 1543 1544 1544 1545 1545 1546 1546 1546 1547 1547 1547 1547 1547 1548 1548 1549
1498 1504 1509 1501 1499 1500 1505 1512 1503 1504 1506 1508 1511 1513 1514 1515 1517 1519 1522 1524 1525 1527 1529 1531 1533 1534 1535 1536 1538 1539 1540 1541 1542 1543 1544 1544 1544 1545 1545 1545 1546 1546 1546 1546 1546 1546 1547 1547 1547
1508 1515 1513 1505 1499 1500 1504 1509 1502 1504 1506 1508 1510 1512 1513 1515 1516 1518 1521 1523 1525 1526 1528 1530 1532 1533 1534 1536 1537 1538 1539 1540 1541 1542 1543 1543 1544 1544 1544 1545 1545 1545 1545 1545 1545 1545 1546 1546 1546
1515 1514 1512 1509 1501 1501 1506 1506 1502 1503 1505 1507 1509 1511 1512 1514 1515 1517 1519 1522 1524 1525 1527 1529 1531 1532 1534 1535 1536 1537 1538 1539 1540 1541 1542 1542 1543 1543 1543 1544 1544 1544 1544 1544 1544 1544 1544 1544 1545
1504 1509 1511 1505 1498 1502 1505 1505 1502 1502 1504 1506 1507 1509 1511 1512 1514 1516 1518 1520 1522 1524 1525 1528 1529 1530 1532 1533 1535 1536 1537 1538 1539 1540 1541 1542 1542 1543 1543 1543 1543 1543 1543 1544 1543 1543 1543 1543 1543
1503 1510 1509 1502 1497 1500 1505 1505 1501 1501 1501 1502 1504 1506 1507 1509 1512 1514 1516 1518 1519 1522 1523 1525 1527 1529 1530 1532 1533 1535 1536 1537 1538 1539 1540 1541 1541 1542 1542 1542 1542 1542 1542 1542 1542 1542 1542 1542 1542
1502 1507 1506 1505 1501 1501 1505 1510 1504 1501 1501 1502 1503 1504 1505 1506 1509 1511 1513 1515 1517 1519 1521 1523 1526 1527 1529 1531 1532 1533 1535 1536 1537 1538 1539 1540 1540 1541 1541 1541 1542 1542 1542 1542 1542 1542 1541 1541 1541
1505 1495 1497 1501 1510 1517 1512 1527 1509 1503 1502 1500 1500 1501 1502 1504 1506 1508 1510 1512 1514 1516 1519 1522 1524 1526 1527 1529 1530 1531 1532 1533 1535 1536 1537 1538 1539 1540 1540 1540 1541 1541 1541 1540 1541 1540 1540 1540 1540
1495 1491 1496 1502 1511 1520 1517 1525 1517 1505 1504 1499 1497 1497 1498 1500 1503 1505 1506 1508 1511 1514 1517 1519 1521 1523 1525 1527 1528 1529 1530 1531 1533 1534 1535 1536 1537 1538 1539 1539 1539 1539 1539 1539 1539 1539 1539 1539 1538
1489 1495 1502 1510 1518 1531 1522 1526 1522 1509 1501 1495 1493 1494 1494 1496 1499 1501 1504 1507 1509 1512 1514 1517 1519 1521 1523 1524 1526 1527 1528 1529 1530 1532 1533 1534 1535 1536 1537 1537 1538 1538 1538 1538 1538 1538 1537 1537 1537
1492 1509 1528 1531 1538 1536 1521 1524 1518 1497 1492 1491 1490 1491 1491 1494 1496 1498 1501 1503 1506 1508 1511 1513 1516 1518 1520 1521 1523 1524 1526 1527 1528 1529 1531 1532 1533 1533 1534 1535 1535 1536 1536 1536 1536 1536 1536 1536 1535
1495 1504 1527 1538 1541 1534 1523 1524 1507 1492 1489 1488 1488 1488 1489 1491 1493 1496 1498 1501 1503 1506 1508 1510 1512 1514 1517 1518 1520 1521 1523 1524 1526 1527 1528 1529 1530 1531 1532 1533 1533 1533 1534 1534 1534 1534 1534 1534 1533
1496 1504 1504 1523 1529 1534 1528 1516 1501 1490 1489 1487 1487 1487 1488 1489 1491 1493 1496 1498 1501 1503 1505 1507 1509 1511 1513 1515 1517 1518 1520 1521 1523 1524 1525 1526 1528 1528 1529 1530 1530 1531 1531 1531 1532 1531 1531 1531 1531
1487 1498 1512 1523 1536 1538 1527 1521 1513 1497 1492 1488 1488 1488 1488 1489 1490 1492 1494 1496 1498 1500 1503 1504 1506 1507 1509 1511 1513 1515 1516 1518 1520 1521 1522 1524 1524 1526 1526 1527 1527 1528 1529 1529 1529 1529 1529 1529 1529
1494 1500 1510 1521 1522 1534 1537 1523 1493 1491 1488 1488 1487 1487 1488 1489 1490 1491 1493 1495 1497 1499 1500 1502 1503 1505 1506 1508 1510 1511 1513 1515 1517 1518 1519 1521 1522 1522 1523 1524 1524 1525 1526 1526 1526 1526 1526 1526 1526
1486 1493 1504 1515 1522 1526 1529 1517 1485 1485 1484 1485 1486 1487 1487 1488 1490 1491 1492 1493 1495 1497 1498 1500 1501 1502 1503 1505 1506 1508 1510 1512 1513 1515 1516 1518 1519 1519 1520 1521 1522 1522 1522 1523 1523 1523 1523 1523 1523